Regional Weather Roundup
Issued by NWS Jackson, KY

Home | Current Version | Previous Version | Text Only | Print | Product List | Glossary On
Versions: 1 2 3 4 5 6 7 8 9 10 11 12 13 14 15 16 17 18 19 20 21 22 23 24 25 26 27 28 29 30 31 32 33 34 35 36 37 38 39 40 41 42 43 44 45 46 47 48 49 50
000
ASUS43 KJKL 020919
RWRJKL

EAST KENTUCKY HOURLY WEATHER ROUNDUP
NATIONAL WEATHER SERVICE JACKSON KY
500 AM EDT TUE SEP 02 2014

NOTE: "FAIR" INDICATES FEW OR NO CLOUDS BELOW 12,000 FEET WITH
NO SIGNIFICANT WEATHER AND/OR OBSTRUCTIONS TO VISIBILITY.

* THESE REPORTS ARE NOT UNDER NWS QUALITY CONTROL AND MAY NOT
  REPORT WEATHER SUCH AS PRECIPITATION AND FOG.

KYZ079-080-083-085-087-088-110-112-115-119-120-021000
...EASTERN KENTUCKY...

CITY           SKY/WX    TMP DP  RH WIND       PRES   REMARKS
JACKSON        PTCLDY    74  69  85 VRB3      30.06S
LONDON         CLOUDY    73  69  87 CALM      30.06F
SOMERSET*      CLOUDY    72  70  94 CALM      30.06S
MONTICELLO*    CLOUDY    71  69  93 CALM      30.06F
WILLIAMSBURG*  CLEAR     68  68 100 CALM      30.07S
MIDDLESBORO*   MOCLDY    69  69  99 CALM      30.09S
HARLAN APT*    CLOUDY    68  68 100 MISG      30.10S VSB 1/4
HAZARD APT*    SUNNY     73  72  94 CALM      30.06F
BLACK MTN*       N/A     66  66 100 SW6         N/A
PIKEVILLE APT* CLEAR     75  68  78 S5        30.07S
BIG SANDY*     MOSUNNY   75  70  83 SW5       30.05S
MOREHEAD APT*  PTSUNNY   73  68  83 SW9       30.04S
ASHLAND*       MOCLDY    70  66  88 CALM      29.98S
$$

KYZ035-036-041-042-044-050-067-078-099-021000
...CENTRAL KENTUCKY...

CITY           SKY/WX    TMP DP  RH WIND       PRES   REMARKS
MT STERLING*   MOCLDY    72  68  88 SW6       30.03S
FLEMING/MASON* MOCLDY    72  68  88 SW8       30.00F
DANVILLE*      CLOUDY    72  68  88 SW5       30.05R
RICHMOND*      CLOUDY    75  66  73 SW5       30.03S
LEXINGTON      CLOUDY    75  69  81 S7        30.01S
FRANKFORT      CLOUDY    75  69  81 SW8       29.98F
$$

KYZ091>093-OHZ055-061-077-WVZ005-015-034-035-042-021000
...SOUTHERN OHIO/WEST VIRGINIA...

CITY           SKY/WX    TMP DP  RH WIND       PRES   REMARKS
COVINGTON      CLOUDY    76  71  85 S8        29.96F
COLUMBUS       PTCLDY    75  70  83 SW6       29.95S
DAYTON         CLOUDY    73  71  93 SW7       29.96F
WILMINGTON     MOCLDY    71  69  93 S6        29.96F
HUNTINGTON     PTCLDY    72  69  90 S8        30.00S
CHARLESTON     MOCLDY    69  69 100 S3        30.02R
BECKLEY        MOCLDY    71  65  81 W3        30.13S
BLUEFIELD      CLOUDY    72  64  76 SW5       30.16F
$$

VAZ002-007-008-TNZ017-027-036-066-071-021000
...SOUTHWEST VIRGINIA/EAST TENNESSEE...

CITY           SKY/WX    TMP DP  RH WIND       PRES   REMARKS
WISE*          MOCLDY    72  64  78 SW10      30.17S
JONESVILLE*      N/A     66  66 100 CALM      30.12S
ABINGDON*      PTCLDY    68  67  97 CALM      30.14S
BRISTOL        MOCLDY    67  64  90 CALM      30.12R
KNOXVILLE      PTCLDY    72  69  90 CALM      30.08S
OAK RIDGE      PTCLDY    74  70  87 CALM      30.10R
CROSSVILLE     PTCLDY    70  67  90 CALM      30.13S
NASHVILLE      PTCLDY    71  68  90 S3        30.03S
$$

...KEY TO REMARKS...
VSB - VISIBILITY IN MILES
WCI - WIND CHILL INDEX
HX  - HEAT INDEX

$$



USA.gov is the U.S. government's official web portal to all federal, state and local government web resources and services.